[[{"header":{"parameterUnit":"m.s-1","parameterCategory":1,"la1":30.2991,"la2":30.254,"lo1":-89.0895,"lo2":-89.0444,"dy":0.0017,"dx":0.0017,"nx":28,"ny":28,"refTime":"2023-10-05T03:00:00:Z","depth":0,"parameterNumber":2,"parameterNumberName":"U-component_of_WINDS"},"data":[0,0,0,0,0,0,0,0,0,0,0,0,0,0,0,0,0,0,0,0,0,0,0,0,0,0,0,0,0,0,0,0,0,0,0,0,0,0,0,0,0,0,0,0,0,0,0,0,0,0,0,0,0,0,0,0,0,0,-3.128,-3.128,0,-3.1255,-3.1255,-3.1254,-3.1119,-3.1116,-3.1113,-3.111,-3.1085,-3.1088,-3.109,0,0,0,0,0,0,0,0,0,0,0,0,0,-3.1214,-3.1216,-3.1281,-3.128,-3.128,-3.1255,-3.1255,-3.1254,-3.112,-3.1116,-3.1112,-3.1108,-3.1085,-3.1087,-3.109,0,0,0,0,0,0,0,0,0,0,0,0,0,-3.1221,-3.1217,-3.1281,-3.121,-3.1203,-3.1255,-3.1255,-3.1254,-3.1121,-3.1116,-3.1111,-3.1106,-3.1084,-3.1087,-3.1091,-3.1209,0,0,-3.1101,-3.1103,0,0,0,0,0,0,0,0,-3.1221,-3.1224,-3.122,-3.1215,-3.1207,-3.1185,-3.1222,-3.1239,-3.1122,-3.1152,-3.111,-3.1104,-3.1123,-3.1123,-3.1128,-3.1208,-3.1207,-3.1102,-3.1104,-3.1105,-3.1106,0,0,0,0,0,0,0,-3.1221,-3.1224,-3.127,-3.1221,-3.1213,-3.118,-3.1175,-3.1225,-3.1165,-3.1149,-3.1139,-3.1138,-3.1118,-3.1125,-3.1127,-3.1207,-3.1102,-3.1105,-3.1107,-3.1108,-3.1382,-3.1387,0,0,0,0,0,0,-3.123,-3.1225,-3.1271,-3.127,-3.1202,-3.1185,-3.118,-3.1197,-3.1164,-3.1154,-3.1142,-3.1132,-3.1122,-3.1123,-3.1126,-3.1262,-3.1105,-3.1109,-3.1111,-3.1377,-3.1383,-3.1388,0,0,0,0,0,0,-3.1229,-3.1235,-3.1272,-3.1244,-3.1247,-3.1191,-3.1212,-3.1199,-3.1206,-3.1158,-3.1147,-3.116,-3.1118,-3.1121,-3.1189,-3.1259,-3.111,-3.1113,-3.137,-3.1378,-3.1386,-3.1536,0,0,0,0,0,0,-3.1228,-3.1236,-3.128,-3.1246,-3.1249,-3.1336,-3.1216,-3.1202,-3.1213,-3.1199,-3.1173,-3.1164,-3.1114,-3.1185,-3.1193,-3.1261,-3.1116,-3.1364,-3.1374,-3.1383,-3.1524,-3.1548,-3.1568,0,0,0,0,0,-3.1226,-3.1324,-3.1283,-3.129,-3.1303,-3.1341,-3.1342,-3.1282,-3.1219,-3.1263,-3.1232,-3.1165,-3.125,-3.1193,-3.1201,-3.1271,-3.1359,-3.1371,-3.1382,-3.1515,-3.1543,-3.1567,0,0,0,0,0,0,-3.1368,-3.1318,-3.1272,-3.1363,-3.1357,-3.1318,-3.1372,-3.1314,-3.1327,-3.1314,-3.124,-3.1235,-3.1315,-3.13,-3.1237,-3.1384,-3.1293,-3.1307,-3.1391,-3.1418,-3.1439,-3.1441,-3.1119,0,0,0,0,0,-3.141,-3.1445,-3.1399,-3.1483,-3.1483,-3.1428,-3.1442,-3.1397,-3.1388,-3.1385,-3.1359,-3.1354,-3.1379,-3.1398,-3.1418,-3.1522,-3.1514,-3.1574,-3.1596,-3.1614,-3.1627,-3.168,-3.1706,-3.1426,-3.1426,-3.1426,0,0,-3.1497,-3.1474,-3.1501,-3.1511,-3.1501,-3.1539,-3.1427,-3.1472,-3.1499,-3.1392,-3.1455,-3.1436,-3.1425,-3.1512,-3.1548,-3.1501,-3.1702,-3.1629,-3.1643,-3.1646,-3.1694,-3.1721,-3.1745,-3.1434,-3.1433,-3.1431,0,0,-3.1675,-3.1661,-3.1729,-3.1721,-3.1707,-3.167,-3.1687,-3.1656,-3.1639,-3.1701,-3.1622,-3.1653,-3.1699,-3.1694,-3.1698,-3.1873,-3.1812,-3.1882,-3.1996,-3.2048,-3.207,-3.209,-3.2152,-3.2176,-3.1895,-3.1896,-3.1896,0,-3.1785,-3.1838,-3.1771,-3.1821,-3.1828,-3.1732,-3.1801,-3.1797,-3.1791,-3.1798,-3.1746,-3.18,-3.1786,-3.187,-3.1913,-3.1919,-3.1936,-3.1885,-3.2072,-3.2091,-3.2108,-3.2167,-3.2191,-3.1904,-3.1903,-3.1902,-3.1901,0,-3.1973,-3.2012,-3.2068,-3.2064,-3.2077,-3.2137,-3.208,-3.2101,-3.2055,-3.2024,-3.2088,-3.2067,-3.2082,-3.2099,-3.2054,-3.2177,-3.2148,-3.2085,-3.1992,-3.2144,-3.2198,-3.222,-3.1917,-3.1913,-3.1911,-3.1909,0,0,-3.2241,-3.2198,-3.222,-3.2217,-3.2195,-3.2223,-3.2278,-3.2291,-3.2311,-3.2311,-3.2355,-3.2395,-3.2337,-3.2341,-3.2295,-3.2342,-3.2482,-3.2273,-3.2272,-3.2313,-3.2616,-3.2663,-3.269,-3.2441,-3.2445,-3.2448,-3.2616,0,-3.241,-3.25,-3.2442,-3.2542,-3.2576,-3.2486,-3.2533,-3.2525,-3.2497,-3.2523,-3.2492,-3.2522,-3.2443,-3.2445,-3.2487,-3.2456,-3.2542,-3.2443,-3.2482,-3.2484,-3.2487,-3.2718,-3.2768,-3.2928,-3.2637,-3.2641,-3.2643,0,-3.262,-3.2628,-3.2731,-3.2701,-3.2713,-3.2757,-3.2764,-3.279,-3.2779,-3.2755,-3.276,-3.2702,-3.2754,-3.2663,-3.2734,-3.2668,-3.268,-3.2668,-3.2673,-3.2674,-3.2573,-3.2726,-3.2977,-3.3002,-3.2676,-3.2673,-3.2671,0,-3.2804,-3.284,-3.2906,-3.2906,-3.2873,-3.2906,-3.2894,-3.2878,-3.289,-3.2897,-3.2904,-3.2918,-3.2925,-3.2937,-3.2885,-3.2823,-3.2963,-3.2867,-3.2945,-3.2947,-3.2978,-3.2977,-3.3236,-3.2987,-3.2987,-3.2986,-3.2986,0,-3.3,-3.3066,-3.2988,-3.3029,-3.3101,-3.3034,-3.3107,-3.3085,-3.3072,-3.3107,-3.303,-3.3065,-3.2993,-3.3021,-3.2981,-3.3046,-3.305,-3.3033,-3.3021,-3.3039,-3.3042,-3.3046,-3.3034,-3.2993,-3.2991,-3.299,-3.2989,0,-3.3217,-3.3168,-3.3234,-3.3197,-3.3189,-3.3244,-3.3212,-3.3249,-3.3216,-3.3261,-3.3268,-3.3217,-3.3245,-3.3194,-3.3217,-3.319,-3.328,-3.3252,-3.3284,-3.3275,-3.3356,-3.335,-3.3627,-3.366,-3.3391,-3.3394,-3.3396,0,-3.3345,-3.3394,-3.3362,-3.338,-3.3372,-3.3401,-3.3413,-3.3348,-3.3364,-3.3355,-3.3392,-3.3414,-3.3429,-3.3479,-3.3444,-3.3461,-3.3432,-3.3528,-3.3434,-3.3451,-3.3433,-3.3431,-3.3436,-3.3548,-3.3551,-3.3554,-3.3556,0,-3.3577,-3.355,-3.3569,-3.358,-3.3596,-3.3601,-3.3601,-3.362,-3.3552,-3.3574,-3.3601,-3.3613,-3.3635,-3.3658,-3.3667,-3.3655,-3.3595,-3.3586,-3.3604,-3.3624,-3.364,-3.3632,-3.3337,-3.358,-3.3577,-3.3575,-3.3574,-3.3573,-3.3754,-3.3793,-3.3776,-3.38,-3.3793,-3.3795,-3.3827,-3.3798,-3.3819,-3.3832,-3.3793,-3.383,-3.3818,-3.3823,-3.3817,-3.3846,-3.3803,-3.3831,-3.3838,-3.3846,-3.3859,-3.3636,-3.3847,-3.3847,-3.3846,-3.3845,-3.3845,0,-3.3981,-3.3966,-3.3988,-3.399,-3.401,-3.395,-3.3947,-3.3967,-3.4,-3.3993,-3.4009,-3.4041,-3.4063,-3.403,-3.4047,-3.4076,-3.4049,-3.4083,-3.408,-3.4078,-3.3896,-3.3878,-3.4104,-3.4104,-3.4104,-3.4104,-3.4104,-3.4104,-3.4102,-3.4165,-3.4136,-3.4195,-3.4179,-3.4214,-3.4217,-3.4219,-3.4213,-3.4252,-3.4269,-3.4247,-3.423,-3.4245,-3.4262,-3.4252,-3.4262,-3.4305,-3.4286,-3.4116,-3.4091,-3.4067,-3.4049,-3.4308,-3.4308,-3.4465,-3.4467,-3.4468]},{"header":{"parameterUnit":"m.s-1","parameterCategory":1,"la1":30.2991,"la2":30.254,"lo1":-89.0895,"lo2":-89.0444,"dy":0.0017,"dx":0.0017,"nx":28,"ny":28,"refTime":"2023-10-05T03:00:00:Z","depth":0,"parameterNumber":3,"parameterNumberName":"V-component_of_WINDS"},"data":[0,0,0,0,0,0,0,0,0,0,0,0,0,0,0,0,0,0,0,0,0,0,0,0,0,0,0,0,0,0,0,0,0,0,0,0,0,0,0,0,0,0,0,0,0,0,0,0,0,0,0,0,0,0,0,0,0,0,-0.5907,-0.5909,0,-0.6046,-0.6048,-0.6049,-0.6204,-0.6206,-0.6208,-0.6211,-0.6344,-0.6346,-0.6347,0,0,0,0,0,0,0,0,0,0,0,0,0,-0.5768,-0.577,-0.5907,-0.5909,-0.5911,-0.6046,-0.6048,-0.605,-0.6203,-0.6206,-0.6209,-0.6212,-0.6344,-0.6345,-0.6347,0,0,0,0,0,0,0,0,0,0,0,0,0,-0.586,-0.5771,-0.5907,-0.6004,-0.6014,-0.6045,-0.6048,-0.605,-0.6203,-0.6206,-0.621,-0.6213,-0.6343,-0.6345,-0.6347,-0.6292,0,0,-0.6354,-0.6355,0,0,0,0,0,0,0,0,-0.5854,-0.5865,-0.5988,-0.5998,-0.6009,-0.6111,-0.6048,-0.6131,-0.6202,-0.6131,-0.6211,-0.6215,-0.6263,-0.6272,-0.6291,-0.6298,-0.6304,-0.6354,-0.6355,-0.6356,-0.6357,0,0,0,0,0,0,0,-0.5848,-0.5859,-0.5962,-0.599,-0.6002,-0.6038,-0.6055,-0.6064,-0.6176,-0.6137,-0.6149,-0.6164,-0.627,-0.6288,-0.6295,-0.6306,-0.6354,-0.6356,-0.6357,-0.6358,-0.6273,-0.6269,0,0,0,0,0,0,-0.5828,-0.5853,-0.5958,-0.5966,-0.5939,-0.6038,-0.6057,-0.6075,-0.6176,-0.6195,-0.6161,-0.617,-0.6283,-0.6292,-0.63,-0.624,-0.6356,-0.6358,-0.636,-0.6276,-0.6272,-0.6268,0,0,0,0,0,0,-0.5824,-0.5836,-0.5952,-0.5913,-0.5931,-0.6037,-0.6056,-0.6076,-0.6094,-0.6194,-0.6214,-0.6159,-0.6286,-0.6297,-0.6293,-0.6247,-0.6359,-0.6361,-0.628,-0.6275,-0.627,-0.6119,0,0,0,0,0,0,-0.582,-0.5834,-0.5815,-0.5912,-0.5932,-0.5944,-0.6053,-0.6076,-0.6099,-0.6113,-0.6198,-0.6215,-0.6289,-0.6289,-0.6295,-0.6251,-0.6363,-0.6285,-0.6278,-0.6272,-0.6128,-0.6109,-0.6093,0,0,0,0,0,-0.5814,-0.5766,-0.5813,-0.5825,-0.5912,-0.5941,-0.5953,-0.6041,-0.6094,-0.6075,-0.6139,-0.6213,-0.6252,-0.6287,-0.6295,-0.6252,-0.6288,-0.628,-0.6272,-0.6136,-0.6113,-0.6093,0,0,0,0,0,0,-0.5658,-0.578,-0.5834,-0.5816,-0.5867,-0.5967,-0.5946,-0.6014,-0.6049,-0.606,-0.6166,-0.6184,-0.6166,-0.621,-0.6247,-0.6202,-0.628,-0.6273,-0.6174,-0.6153,-0.6135,-0.6123,-0.6365,0,0,0,0,0,-0.5622,-0.5638,-0.5743,-0.5717,-0.574,-0.5838,-0.5854,-0.5919,-0.5975,-0.5996,-0.606,-0.611,-0.6133,-0.6146,-0.6173,-0.6137,-0.6156,-0.6111,-0.6093,-0.6078,-0.6069,-0.6051,-0.6031,-0.6242,-0.6242,-0.6242,0,0,-0.5546,-0.5615,-0.5618,-0.5687,-0.5735,-0.5746,-0.5855,-0.5863,-0.5872,-0.5997,-0.5997,-0.6045,-0.6108,-0.6086,-0.608,-0.6121,-0.6016,-0.6068,-0.6055,-0.6055,-0.604,-0.602,-0.6003,-0.6236,-0.6237,-0.6238,0,0,-0.5414,-0.5469,-0.5453,-0.5499,-0.557,-0.5636,-0.5631,-0.5722,-0.5759,-0.5762,-0.5855,-0.5867,-0.5905,-0.5945,-0.597,-0.5855,-0.5922,-0.5861,-0.5765,-0.5746,-0.5729,-0.5715,-0.567,-0.5653,-0.5853,-0.5852,-0.5852,0,-0.531,-0.5334,-0.5435,-0.5437,-0.5463,-0.5581,-0.5562,-0.5601,-0.5676,-0.569,-0.5737,-0.5788,-0.5838,-0.5827,-0.5798,-0.5816,-0.5812,-0.5849,-0.5724,-0.5711,-0.5699,-0.5657,-0.5641,-0.5844,-0.5845,-0.5846,-0.5847,0,-0.5201,-0.5216,-0.5194,-0.5266,-0.5291,-0.5282,-0.5379,-0.5391,-0.5454,-0.5513,-0.5513,-0.5578,-0.562,-0.5623,-0.5683,-0.5619,-0.5643,-0.5705,-0.5785,-0.5669,-0.5631,-0.5617,-0.5832,-0.5835,-0.5838,-0.584,0,0,-0.4971,-0.5101,-0.509,-0.5124,-0.5212,-0.5224,-0.5221,-0.5265,-0.5271,-0.532,-0.5317,-0.5348,-0.5407,-0.5435,-0.5501,-0.5485,-0.5385,-0.555,-0.5553,-0.5513,-0.5315,-0.5265,-0.5245,-0.5432,-0.543,-0.5428,-0.5309,0,-0.4851,-0.4855,-0.4946,-0.4923,-0.4936,-0.5049,-0.5046,-0.5097,-0.5154,-0.5171,-0.5233,-0.5252,-0.533,-0.5347,-0.5337,-0.5399,-0.5346,-0.541,-0.5427,-0.5426,-0.5404,-0.5226,-0.5173,-0.5057,-0.5295,-0.5293,-0.5291,0,-0.4712,-0.4754,-0.4733,-0.4822,-0.4831,-0.4826,-0.4873,-0.489,-0.4951,-0.4993,-0.5025,-0.5101,-0.5101,-0.5179,-0.5179,-0.522,-0.5233,-0.5265,-0.5263,-0.5264,-0.5348,-0.5219,-0.5023,-0.5004,-0.527,-0.5272,-0.5273,0,-0.4541,-0.4594,-0.4588,-0.4613,-0.4717,-0.4711,-0.4754,-0.4819,-0.4839,-0.4879,-0.4892,-0.4931,-0.4951,-0.4978,-0.5061,-0.5111,-0.505,-0.5136,-0.5082,-0.5079,-0.506,-0.5059,-0.4859,-0.5075,-0.5075,-0.5075,-0.5076,0,-0.4396,-0.4377,-0.4512,-0.4508,-0.449,-0.4594,-0.4572,-0.4626,-0.4682,-0.4688,-0.4788,-0.479,-0.4902,-0.4917,-0.4982,-0.497,-0.4979,-0.501,-0.5027,-0.4999,-0.4994,-0.5006,-0.5014,-0.5071,-0.5072,-0.5073,-0.5074,0,-0.4201,-0.4291,-0.4291,-0.4391,-0.4415,-0.4397,-0.4481,-0.4479,-0.4544,-0.4549,-0.4556,-0.4655,-0.4677,-0.4764,-0.4807,-0.4851,-0.4816,-0.4852,-0.4795,-0.4806,-0.4745,-0.4748,-0.4542,-0.4519,-0.4752,-0.4749,-0.4747,0,-0.41,-0.4089,-0.4188,-0.4201,-0.4239,-0.4258,-0.428,-0.4382,-0.44,-0.4469,-0.4458,-0.4489,-0.4519,-0.4548,-0.4622,-0.4655,-0.4689,-0.4615,-0.4694,-0.4666,-0.4683,-0.4681,-0.4679,-0.4596,-0.4593,-0.459,-0.4589,0,-0.391,-0.3956,-0.3985,-0.4029,-0.4053,-0.4092,-0.4137,-0.414,-0.4254,-0.4269,-0.4294,-0.4317,-0.4362,-0.439,-0.4436,-0.4477,-0.4549,-0.4564,-0.4552,-0.4521,-0.4487,-0.4501,-0.4744,-0.4567,-0.4569,-0.4571,-0.4572,-0.4573,-0.3757,-0.3752,-0.3821,-0.3849,-0.3894,-0.3934,-0.3937,-0.4002,-0.4026,-0.4072,-0.4131,-0.4148,-0.4209,-0.4277,-0.4313,-0.4326,-0.4367,-0.4351,-0.4346,-0.4339,-0.4324,-0.4489,-0.4335,-0.4336,-0.4336,-0.4337,-0.4338,0,-0.3569,-0.362,-0.3645,-0.3706,-0.3728,-0.38,-0.3853,-0.3865,-0.388,-0.3932,-0.396,-0.3988,-0.4016,-0.4092,-0.4127,-0.4123,-0.4157,-0.4128,-0.4127,-0.4134,-0.4287,-0.4292,-0.4099,-0.4099,-0.41,-0.41,-0.41,-0.41,-0.3473,-0.3468,-0.3521,-0.3538,-0.3589,-0.3608,-0.3632,-0.3668,-0.371,-0.3737,-0.3762,-0.3813,-0.3874,-0.3915,-0.3942,-0.3964,-0.397,-0.3929,-0.3961,-0.4101,-0.4124,-0.4145,-0.415,-0.3931,-0.3931,-0.3807,-0.3806,-0.3805]}]]